Regional Weather Roundup
Issued by NWS Upton, NY

Current Version | Previous Version | Graphics & Text | Print | Product List | Glossary Off
Versions: 1 2 3 4 5 6 7 8 9 10 11 12 13 14 15 16 17 18 19 20 21 22 23 24 25 26 27

000
ASUS41 KOKX 270005
RWROKX

Regional Weather Roundup
National Weather Service New York NY
800 PM EDT THU APR 26 2018

Note: "FAIR" indicates few or no clouds below 12,000 feet with no
significant weather and/or obstructions to visibility.

NYZ071-072-176-178-NJZ106-104-270100-
New York City Metro Area

CITY           SKY/WX    TMP DP  RH WIND       PRES   REMARKS
Central Park   FAIR      66  38  35 VRB5      29.84R
Bronx Bot Gard   N/A     64  37  36 W3        29.83S
Bronx Lehman C   N/A     66  37  34 W5          N/A
LaGuardia Arpt FAIR      64  40  41 NW13      29.81R
Queens College   N/A     66  41  39 W7          N/A
Kennedy Intl   FAIR      61  44  53 SW13      29.83R
Breezy Point     N/A     57 N/A N/A SW9         N/A
Brooklyn Coll    N/A     64  43  45 SW7         N/A
Staten Island    N/A     64  41  42 W8          N/A
Newark/Liberty FAIR      66  42  41 SW12      29.82R
Teterboro      FAIR      65  40  39 N6        29.81R
$$

NYZ177-179-078>081-270100-
Long Island New York

CITY           SKY/WX    TMP DP  RH WIND       PRES   REMARKS
Jones Beach      N/A     52 N/A N/A S7          N/A
Wantagh          N/A     61  45  55 SW10        N/A
Hempstead        N/A     64  45  48 SW8       29.85R
Matinecock Pt    N/A     63 N/A N/A NW10        N/A
Farmingdale    FAIR      63  43  48 SW10      29.83R
MacArthur/ISP  FAIR      59  46  62 S10       29.82R
Stony Brook      N/A     61  41  48 N2          N/A
Shirley        FAIR      57  46  66 S8        29.83R
Mt Sinai Harb    N/A    N/A N/A N/A W2          N/A
Westhampton    FAIR      51  42  71 SW6       29.84R
East Hampton   FAIR      51  44  77 SW6       29.82R
Southold         N/A     57  43  58 SW5         N/A
Montauk          N/A     53  45  74 SW8       29.83R
$$

NYZ052-065-067-270100-
Hudson Valley

CITY           SKY/WX    TMP DP  RH WIND       PRES   REMARKS
White Plains   FAIR      61  38  42 NW9       29.81R
Larchmont Harb   N/A     64 N/A N/A NW5         N/A
Croton On Huds   N/A     63 N/A N/A W6          N/A
Somers           N/A     59  39  47 NW3         N/A
Brewster         N/A     57  39  51 N8          N/A
Newburgh       PTCLDY    59  43  55 NW6       29.84R
Montgomery     FAIR      59  41  51 NW3       29.82R
Otisville        N/A     57  41  54 NW2         N/A
Warwick          N/A     59  41  51 N3          N/A
Suffern          N/A     61  39  44 N6          N/A
Poughkeepsie   FAIR      58  39  49 NW6       29.83R
Albany         MOCLDY    49  38  65 NW8       29.85R
$$

NJZ001-105-106-008-010-013-015-019>022-104-270100-
New Jersey

CITY           SKY/WX    TMP DP  RH WIND       PRES   REMARKS
Newark/Liberty FAIR      66  42  41 SW12      29.82R
Teterboro      FAIR      65  40  39 N6        29.81R
Caldwell       FAIR      64  39  39 N3        29.83R
Somerville     FAIR      62  42  47 CALM      29.82R
Linden         FAIR      65  39  38 W8        29.83R
Perth Amboy      N/A     64 N/A N/A W10         N/A
Sussex         FAIR      62  40  44 N3        29.84R
Andover          N/A     61  39  44 N3        29.83R
Trenton        FAIR      64  42  44 SW7       29.84R
Millville      FAIR      60  46  59 S3        29.86R
Atlantic City  FAIR      66  43  43 SW6       29.85R
Wrightstown    FAIR      62  43  50 W5        29.82
Toms River     FAIR      57  47  69 CALM      29.86R
Belmar         FAIR      63  42  46 SW6       29.86R
$$

PAZ047>061-062-071-270100-
Eastern Pennsylvania

CITY           SKY/WX    TMP DP  RH WIND       PRES   REMARKS
Philadelphia   FAIR      65  40  39 W9        29.85R
Allentown      FAIR      61  41  47 SW8       29.84R
Scranton       FAIR      60  40  47 N7        29.84R
$$

CTZ002-004>006-009-010-012-RIZ004-006-007-MAZ004-011-015-270100-
Southern New England

 In CT

CITY           SKY/WX    TMP DP  RH WIND       PRES   REMARKS
Bradley Intl   FAIR      56  41  57 NW10      29.82R
Hartford       FAIR      60  41  49 NW9       29.81R
Danbury        FAIR      59  39  47 NW8       29.83R
Wtrbury/Oxford FAIR      59  40  49 NW3       29.83R
Norwalk Harbor   N/A     63 N/A N/A NW12        N/A
Bridgeport     FAIR      65  39  38 W9        29.81R
Meriden        FAIR      61  40  45 NW9       29.81R
New Haven      FAIR      63  40  42 NW6       29.81R
Chester        FAIR      61  39  44 CALM      29.81R
Groton         FAIR      54  45  71 S9        29.80R
Willimantic    FAIR      60  40  47 NW12      29.80R

 In RI

CITY           SKY/WX    TMP DP  RH WIND       PRES   REMARKS
Providence     FAIR      62  41  46 NW12      29.78R
Block Island   FAIR      51  43  74 SW18      29.81R
Westerly       FAIR      56  46  69 SW6       29.80R

In MA

CITY           SKY/WX    TMP DP  RH WIND       PRES   REMARKS
Boston         FAIR      59  40  49 W17G23    29.75R
Worcester      MOCLDY    52  39  61 W12G22    29.78R
Westfield      CLOUDY    56  41  57 W14       29.81R
Provincetown   FAIR      51  44  77 W5        29.75
Nantucket      FAIR      48  45  89 SW16      29.80R
$$

ANZ330-335-338-340-345-350-353-355-270100-
Coastal Marine Observations


STATION/POSITION TIME  SKY/WX   TEMP    WIND        PRES    VSBY  WAVE
                                AIR SEA DIR/SP/G                  HT/PER
                 (UTC)          (F)     (DEG/KT/KT) (MB)    (MI)  (FT/S)
NY Harb Entrance 2350            51 49  190/ 10/ 12 1010.2          5/11
20 S Fire Island 2350            49 46  220/ 14/ 16 1010.4          6/11
23 SSW Montauk P 2350            48 45  230/ 12/ 16 1010.0          7/11
15 E Barnegat Li 2330               47                N/A           6/10
Hudson Canyon    2350            48 45  210/ 10/ 12 1011.2          7/10
Kings Point      2330            59 50  360/  6/  9 1010.1
Execution Rocks  NOT AVBL
Western LI Sound NOT AVBL
Central LI Sound 2345            51     250/  8/  8   N/A           1
Robbins Reef     2330            66     250/ 10/ 12 1009.9
$$


>>>>>>>>>>>>>>>>>>>>>>>>>>>> KEY <<<<<<<<<<<<<<<<<<<<<<<<<<<
>                                                          <
>     SKY/WX - Sky Condition/Present Weather               <
>     TMP    - Temperature in Fahrenheit                   <
>     DP     - Dew Point in Fahrenheit                     <
>     RH     - Relative Humidity in Percent                <
>     WIND   - Direction (from) and Speed in MPH           <
>     PRES   - Mean Sea Level Pressure (inches of Hg)      <
>     WCI    - Wind Chill Index                            <
>     VSB    - Visibility in Miles                         <
>     HX     - Heat Index                                  <
>     TC     - Temperature in Celsius                      <
>     VRB    - Varibale Wind Direction                     <
>                                                          <
>>>>>>>>>>>>>>>>>>>>>>>>>>>> KEY <<<<<<<<<<<<<<<<<<<<<<<<<<<




USA.gov is the U.S. government's official web portal to all federal, state and local government web resources and services.